Terminal Aerodrome Forecast
Issued by NWS

Home | Current Version | Previous Version | Graphics & Text | Print | Product List | Glossary On
Versions: 1 2 3 4 5 6 7 8 9 10 11 12 13 14
000
FTUS42 KMHX 100738 AAA
TAFOAJ
TAF AMD
KOAJ 100738Z 1008/1106 25005KT P6SM BKN008
     FM100801 26005KT P6SM SKC
     FM101400 28010KT P6SM SKC
     FM102200 23003KT P6SM SKC
      AMD LTD TO CLD VIS AND WIND=

USA.gov is the U.S. government's official web portal to all federal, state and local government web resources and services.